Location: Waco, TX
(31.5480°N, 97.1670°W)
Time: 22:09:15
(UTC-06:00)

ISS - Pass Details

Date: 21 February 2019
Orbit: 403 x 411 km, 51.6° (Epoch: 22 February)

Event Time Altitude Azimuth Distance (km) Brightness Sun altitude
Rises 15:27:59 0° 300° (WNW) 2,322 0.3 32.3°
Reaches altitude 10° 15:30:21 10° 285° (WNW) 1,460 -0.4 31.9°
Maximum altitude 15:32:57 22° 232° (SW) 942 0.5 31.4°
Drops below altitude 10° 15:35:33 10° 179° (S) 1,457 -0.4 31.0°
Sets 15:37:54 0° 163° (SSE) 2,314 0.3 30.6°
